Location: Street
(51.1247°N, 2.7429°W)
Time: 04:25:03
(UTC+00:00)

AO-7 - Visible Passes

Search period start: 21 March 2023 00:00
Search period end: 31 March 2023 01:00
Orbit: 1440 x 1458 km, 101.9° (Epoch: 20 March)

Date Brightness Start Highest point End Pass type
(mag) Time Alt. Az. Time Alt. Az. Time Alt. Az.
21 Mar ? 04:15:26 10° NNE 04:23:05 38° E 04:30:39 10° SSE visible
22 Mar ? 03:16:58 10° NE 03:22:04 17° E 03:27:06 10° ESE visible
22 Mar ? 05:08:01 10° NNE 05:16:23 69° ESE 05:24:40 10° S visible
23 Mar ? 04:08:27 10° NNE 04:15:55 34° E 04:23:18 10° SSE visible
24 Mar ? 03:10:18 10° NE 03:14:49 15° E 03:19:18 10° ESE visible
24 Mar ? 05:00:58 10° NNE 05:09:18 64° ESE 05:17:32 10° S visible
25 Mar ? 04:01:30 10° NNE 04:08:45 31° E 04:15:55 10° SSE visible
26 Mar ? 04:03:45 10° NE 04:07:34 14° E 04:11:21 10° ESE visible
26 Mar ? 05:53:55 10° NNE 06:02:11 59° ESE 06:10:21 10° S visible
27 Mar ? 04:54:34 10° NE 05:01:34 29° E 05:08:31 10° SSE visible
28 Mar ? 03:57:26 10° ENE 04:00:18 12° E 04:03:09 10° E visible
28 Mar ? 05:46:54 10° NNE 05:55:05 54° ESE 06:03:10 10° S visible
29 Mar ? 04:47:39 10° NE 04:54:24 26° E 05:01:04 10° SE visible
30 Mar ? 03:51:44 10° ENE 03:53:01 10° ENE 03:54:19 10° E visible
30 Mar ? 05:39:52 10° NNE 05:47:58 50° E 05:55:57 10° S visible
